QPF
0.01 0.01 0.01 0.02 0.01 0.01 0.02 0.02 0.02 0.02 0.02 0.02 0.02 0.03 0.03 0.03 0.03 0.02 0.03 0.04 0.04 0.04 0.03 0.04 0.05 0.03 0.02 0.02 0.03 0.05 0.05 0.05 0.04 0.03 0.04 0.05 0.04 0.04 0.03 0.02 0.02 0.02 0.03
0.01 0.02 0.01 0.02 0.02 0.01 0.01 0.02 0.02 0.02 0.02 0.02 0.02 0.03 0.04 0.05 0.05 0.04 0.03 0.04 0.04 0.04 0.05 0.05 0.06 0.05 0.04 0.03 0.03 0.04 0.04 0.05 0.06 0.05 0.04 0.04 0.04 0.04 0.03 0.02 0.02 0.02 0.03
0.02 0.02 0.01 0.02 0.02 0.02 0.02 0.02 0.02 0.02 0.02 0.02 0.02 0.03 0.04 0.04 0.04 0.04 0.03 0.03 0.03 0.04 0.05 0.05 0.06 0.06 0.05 0.04 0.03 0.03 0.03 0.03 0.05 0.05 0.04 0.02 0.03 0.05 0.04 0.04 0.03 0.04 0.04
0.01 0.01 0.01 0.02 0.02 0.02 0.03 0.03 0.02 0.02 0.01 0.02 0.03 0.03 0.04 0.03 0.03 0.03 0.03 0.02 0.03 0.04 0.05 0.05 0.06 0.06 0.05 0.04 0.02 0.02 0.03 0.03 0.03 0.04 0.04 0.02 0.02 0.05 0.05 0.04 0.04 0.04 0.04
0.01 0.01 0.01 0.02 0.03 0.03 0.03 0.02 0.01 0.01 0.01 0.01 0.03 0.03 0.03 0.03 0.03 0.03 0.02 0.02 0.03 0.03 0.04 0.06 0.05 0.06 0.04 0.02 0.02 0.02 0.02 0.02 0.02 0.03 0.03 0.03 0.05 0.07 0.06 0.05 0.05 0.03 0.02
0.00 0.01 0.01 0.02 0.02 0.03 0.03 0.02 0.01 0.01 0.01 0.02 0.02 0.02 0.02 0.03 0.03 0.03 0.02 0.02 0.02 0.03 0.04 0.05 0.06 0.06 0.05 0.03 0.02 0.02 0.02 0.02 0.02 0.02 0.02 0.04 0.07 0.09 0.07 0.04 0.03 0.03 0.02
0.00 0.00 0.00 0.01 0.01 0.02 0.02 0.01 0.02 0.01 0.02 0.02 0.02 0.02 0.02 0.02 0.02 0.02 0.02 0.02 0.02 0.03 0.04 0.04 0.05 0.06 0.06 0.04 0.04 0.03 0.03 0.03 0.03 0.02 0.03 0.05 0.06 0.06 0.05 0.04 0.04 0.04 0.03
0.00 0.01 0.01 0.01 0.01 0.01 0.02 0.01 0.01 0.01 0.01 0.02 0.01 0.01 0.01 0.01 0.01 0.01 0.02 0.02 0.02 0.03 0.03 0.04 0.04 0.04 0.04 0.03 0.04 0.05 0.05 0.03 0.02 0.03 0.05 0.03 0.03 0.03 0.03 0.03 0.03 0.03 0.03
0.01 0.01 0.01 0.01 0.02 0.01 0.01 0.01 0.01 0.01 0.02 0.01 0.01 0.01 0.02 0.01 0.01 0.01 0.01 0.01 0.02 0.02 0.03 0.04 0.04 0.04 0.04 0.04 0.04 0.05 0.05 0.04 0.02 0.03 0.03 0.02 0.02 0.02 0.02 0.02 0.02 0.03 0.03
0.02 0.01 0.01 0.01 0.01 0.01 0.01 0.01 0.01 0.01 0.01 0.01 0.01 0.01 0.01 0.00 0.00 0.00 0.01 0.01 0.02 0.02 0.02 0.03 0.04 0.04 0.04 0.04 0.04 0.03 0.03 0.03 0.02 0.02 0.02 0.02 0.01 0.02 0.02 0.02 0.02 0.02 0.03
0.02 0.02 0.01 0.01 0.01 0.01 0.02 0.02 0.02 0.01 0.02 0.01 0.01 0.01 0.00 0.00 0.00 0.00 0.00 0.01 0.01 0.01 0.02 0.02 0.02 0.02 0.04 0.04 0.04 0.03 0.03 0.03 0.03 0.02 0.01 0.02 0.02 0.04 0.03 0.03 0.02 0.02 0.02
0.03 0.02 0.02 0.01 0.01 0.01 0.02 0.02 0.03 0.03 0.03 0.01 0.01 0.01 0.01 0.01 0.01 0.00 0.00 0.00 0.01 0.02 0.03 0.03 0.02 0.03 0.03 0.04 0.04 0.04 0.03 0.02 0.03 0.03 0.02 0.02 0.04 0.05 0.04 0.04 0.04 0.03 0.03
0.02 0.02 0.02 0.02 0.02 0.02 0.03 0.02 0.02 0.03 0.04 0.03 0.01 0.01 0.01 0.01 0.01 0.01 0.01 0.01 0.01 0.01 0.02 0.03 0.04 0.03 0.03 0.03 0.03 0.03 0.03 0.03 0.02 0.03 0.03 0.03 0.04 0.06 0.07 0.06 0.04 0.04 0.03
0.01 0.01 0.02 0.03 0.03 0.03 0.02 0.02 0.02 0.03 0.03 0.03 0.03 0.01 0.01 0.01 0.01 0.01 0.01 0.01 0.01 0.01 0.01 0.01 0.03 0.03 0.03 0.03 0.02 0.02 0.02 0.02 0.03 0.03 0.03 0.03 0.04 0.06 0.07 0.06 0.05 0.05 0.04
0.01 0.01 0.02 0.02 0.03 0.04 0.04 0.04 0.04 0.03 0.03 0.03 0.03 0.03 0.02 0.02 0.02 0.02 0.01 0.01 0.01 0.01 0.01 0.01 0.01 0.02 0.03 0.02 0.02 0.02 0.02 0.02 0.02 0.03 0.03 0.03 0.03 0.05 0.06 0.05 0.06 0.07 0.07
0.01 0.01 0.03 0.04 0.05 0.05 0.06 0.06 0.06 0.05 0.04 0.03 0.03 0.03 0.02 0.02 0.02 0.02 0.02 0.02 0.02 0.02 0.03 0.03 0.03 0.03 0.04 0.04 0.03 0.03 0.03 0.03 0.03 0.03 0.03 0.03 0.03 0.03 0.05 0.05 0.05 0.06 0.06
0.00 0.01 0.02 0.04 0.04 0.05 0.06 0.05 0.04 0.04 0.04 0.04 0.03 0.03 0.02 0.02 0.01 0.01 0.01 0.01 0.01 0.01 0.02 0.02 0.03 0.03 0.05 0.06 0.05 0.05 0.06 0.06 0.06 0.05 0.05 0.03 0.03 0.03 0.04 0.05 0.05 0.06 0.06
0.00 0.01 0.01 0.02 0.03 0.04 0.06 0.06 0.05 0.05 0.05 0.05 0.05 0.04 0.03 0.02 0.02 0.01 0.01 0.00 0.01 0.01 0.01 0.01 0.01 0.01 0.02 0.04 0.04 0.04 0.04 0.05 0.05 0.06 0.08 0.07 0.06 0.05 0.04 0.04 0.05 0.06 0.05
0.00 0.00 0.01 0.01 0.02 0.03 0.04 0.06 0.06 0.07 0.08 0.08 0.08 0.07 0.05 0.04 0.03 0.02 0.01 0.01 0.01 0.01 0.01 0.01 0.01 0.01 0.01 0.02 0.03 0.03 0.02 0.02 0.03 0.04 0.05 0.08 0.08 0.07 0.06 0.06 0.04 0.05 0.05
0.01 0.01 0.01 0.01 0.01 0.02 0.04 0.07 0.07 0.07 0.06 0.07 0.07 0.08 0.08 0.06 0.03 0.02 0.02 0.01 0.01 0.01 0.01 0.01 0.01 0.01 0.01 0.01 0.02 0.02 0.02 0.02 0.02 0.02 0.03 0.05 0.07 0.06 0.06 0.06 0.05 0.03 0.04
0.01 0.01 0.01 0.01 0.01 0.01 0.02 0.03 0.05 0.06 0.05 0.04 0.04 0.05 0.06 0.07 0.05 0.03 0.02 0.02 0.02 0.01 0.01 0.01 0.01 0.01 0.01 0.01 0.01 0.02 0.03 0.02 0.02 0.02 0.02 0.02 0.03 0.03 0.03 0.03 0.03 0.03 0.03
0.01 0.01 0.01 0.01 0.01 0.01 0.01 0.02 0.02 0.02 0.02 0.02 0.02 0.02 0.03 0.05 0.06 0.04 0.02 0.02 0.02 0.02 0.02 0.01 0.01 0.01 0.01 0.01 0.02 0.03 0.04 0.04 0.04 0.03 0.02 0.02 0.02 0.02 0.02 0.02 0.02 0.03 0.02
0.01 0.01 0.01 0.00 0.01 0.01 0.01 0.01 0.01 0.01 0.01 0.01 0.02 0.02 0.03 0.04 0.06 0.06 0.04 0.03 0.03 0.02 0.02 0.02 0.01 0.01 0.01 0.01 0.02 0.03 0.05 0.05 0.04 0.04 0.04 0.03 0.03 0.03 0.03 0.02 0.02 0.02 0.03
0.01 0.00 0.00 0.00 0.00 0.01 0.01 0.01 0.01 0.01 0.01 0.01 0.01 0.02 0.02 0.03 0.04 0.06 0.06 0.05 0.04 0.03 0.02 0.02 0.02 0.02 0.02 0.02 0.02 0.02 0.03 0.04 0.05 0.05 0.04 0.04 0.04 0.04 0.03 0.03 0.03 0.03 0.03
0.00 0.00 0.00 0.00 0.00 0.00 0.00 0.01 0.01 0.01 0.01 0.01 0.01 0.02 0.02 0.02 0.03 0.03 0.04 0.05 0.05 0.05 0.04 0.03 0.02 0.02 0.03 0.03 0.02 0.03 0.03 0.03 0.04 0.05 0.04 0.04 0.04 0.04 0.04 0.04 0.03 0.03 0.03
0.00 0.00 0.00 0.00 0.00 0.00 0.00 0.01 0.01 0.01 0.01 0.01 0.01 0.01 0.01 0.01 0.02 0.03 0.03 0.04 0.04 0.04 0.04 0.04 0.03 0.01 0.02 0.02 0.02 0.02 0.03 0.03 0.03 0.04 0.04 0.04 0.03 0.03 0.04 0.04 0.03 0.03 0.03
MSLP
1025.27 1024.52 1023.77 1023.12 1022.61 1022.25 1022.00 1021.79 1021.55 1021.24 1020.85 1020.40 1019.94 1019.53 1019.22 1019.02 1018.92 1018.89 1018.88 1018.84 1018.75 1018.61 1018.44 1018.29 1018.17 1018.10 1018.09 1018.11 1018.13 1018.10 1018.02 1017.86 1017.64 1017.40 1017.17 1016.98 1016.85 1016.78 1016.76 1016.76 1016.76 1016.73 1016.67
1026.06 1025.29 1024.51 1023.81 1023.26 1022.85 1022.54 1022.29 1022.02 1021.69 1021.29 1020.83 1020.39 1019.99 1019.69 1019.49 1019.38 1019.32 1019.27 1019.19 1019.06 1018.88 1018.69 1018.51 1018.37 1018.29 1018.27 1018.29 1018.30 1018.27 1018.17 1018.02 1017.81 1017.57 1017.36 1017.18 1017.07 1017.01 1016.99 1016.99 1016.98 1016.95 1016.89
1026.80 1026.00 1025.18 1024.44 1023.85 1023.40 1023.07 1022.79 1022.52 1022.19 1021.81 1021.39 1020.97 1020.59 1020.29 1020.07 1019.93 1019.81 1019.70 1019.54 1019.34 1019.10 1018.85 1018.63 1018.46 1018.37 1018.34 1018.34 1018.35 1018.33 1018.25 1018.11 1017.93 1017.73 1017.54 1017.39 1017.29 1017.24 1017.22 1017.20 1017.18 1017.14 1017.07
1027.44 1026.62 1025.79 1025.03 1024.42 1023.96 1023.62 1023.34 1023.07 1022.77 1022.42 1022.03 1021.64 1021.27 1020.96 1020.71 1020.50 1020.31 1020.10 1019.85 1019.56 1019.25 1018.94 1018.67 1018.47 1018.35 1018.31 1018.31 1018.32 1018.31 1018.26 1018.17 1018.03 1017.88 1017.74 1017.62 1017.54 1017.48 1017.45 1017.42 1017.38 1017.32 1017.25
1027.98 1027.17 1026.35 1025.61 1025.02 1024.57 1024.23 1023.97 1023.71 1023.42 1023.09 1022.72 1022.34 1021.97 1021.64 1021.34 1021.06 1020.78 1020.47 1020.12 1019.74 1019.36 1018.99 1018.67 1018.44 1018.30 1018.23 1018.22 1018.24 1018.25 1018.24 1018.19 1018.11 1018.02 1017.93 1017.85 1017.78 1017.73 1017.68 1017.62 1017.56 1017.49 1017.41
1028.44 1027.67 1026.91 1026.22 1025.67 1025.25 1024.94 1024.67 1024.42 1024.13 1023.79 1023.42 1023.03 1022.64 1022.27 1021.91 1021.56 1021.20 1020.80 1020.38 1019.93 1019.48 1019.06 1018.71 1018.44 1018.27 1018.18 1018.15 1018.16 1018.18 1018.19 1018.18 1018.16 1018.13 1018.09 1018.05 1018.00 1017.95 1017.89 1017.81 1017.72 1017.64 1017.56
1028.87 1028.17 1027.48 1026.89 1026.40 1026.03 1025.72 1025.45 1025.17 1024.85 1024.48 1024.08 1023.66 1023.25 1022.84 1022.43 1022.03 1021.60 1021.14 1020.65 1020.15 1019.66 1019.21 1018.83 1018.53 1018.31 1018.18 1018.12 1018.10 1018.10 1018.11 1018.13 1018.15 1018.17 1018.18 1018.18 1018.16 1018.11 1018.04 1017.95 1017.85 1017.76 1017.68
1029.30 1028.69 1028.11 1027.61 1027.20 1026.87 1026.57 1026.27 1025.93 1025.56 1025.14 1024.69 1024.24 1023.79 1023.35 1022.92 1022.48 1022.01 1021.52 1021.00 1020.47 1019.96 1019.49 1019.07 1018.73 1018.47 1018.27 1018.14 1018.06 1018.02 1018.00 1018.02 1018.05 1018.10 1018.15 1018.18 1018.19 1018.16 1018.10 1018.01 1017.91 1017.82 1017.76
1029.77 1029.25 1028.79 1028.39 1028.05 1027.74 1027.42 1027.06 1026.67 1026.22 1025.74 1025.24 1024.76 1024.30 1023.84 1023.40 1022.95 1022.47 1021.96 1021.44 1020.90 1020.37 1019.88 1019.43 1019.04 1018.71 1018.44 1018.21 1018.04 1017.91 1017.83 1017.81 1017.83 1017.89 1017.97 1018.03 1018.07 1018.07 1018.02 1017.95 1017.86 1017.80 1017.77
1030.27 1029.86 1029.50 1029.19 1028.89 1028.58 1028.22 1027.81 1027.33 1026.81 1026.27 1025.74 1025.24 1024.78 1024.34 1023.91 1023.46 1022.98 1022.48 1021.94 1021.40 1020.86 1020.35 1019.86 1019.42 1019.01 1018.63 1018.30 1018.01 1017.77 1017.61 1017.52 1017.50 1017.55 1017.63 1017.72 1017.79 1017.82 1017.80 1017.76 1017.71 1017.68 1017.69
1030.82 1030.49 1030.22 1029.97 1029.69 1029.36 1028.94 1028.45 1027.89 1027.31 1026.73 1026.19 1025.70 1025.26 1024.85 1024.44 1024.00 1023.53 1023.02 1022.48 1021.92 1021.37 1020.83 1020.30 1019.80 1019.31 1018.83 1018.38 1017.96 1017.60 1017.33 1017.15 1017.07 1017.08 1017.15 1017.26 1017.35 1017.42 1017.45 1017.45 1017.44 1017.46 1017.52
1031.39 1031.14 1030.93 1030.70 1030.42 1030.03 1029.55 1028.98 1028.35 1027.72 1027.13 1026.60 1026.15 1025.74 1025.37 1024.98 1024.55 1024.08 1023.55 1022.99 1022.41 1021.83 1021.26 1020.69 1020.13 1019.57 1019.00 1018.43 1017.89 1017.41 1017.02 1016.74 1016.59 1016.55 1016.59 1016.69 1016.80 1016.90 1016.97 1017.02 1017.07 1017.15 1017.27
1031.96 1031.77 1031.59 1031.37 1031.04 1030.59 1030.03 1029.39 1028.71 1028.05 1027.47 1026.97 1026.56 1026.21 1025.87 1025.50 1025.07 1024.57 1024.02 1023.42 1022.80 1022.19 1021.58 1020.99 1020.39 1019.77 1019.12 1018.47 1017.82 1017.23 1016.73 1016.34 1016.10 1016.00 1016.00 1016.08 1016.19 1016.31 1016.42 1016.52 1016.62 1016.75 1016.92
1032.51 1032.37 1032.20 1031.95 1031.57 1031.04 1030.40 1029.70 1028.98 1028.32 1027.76 1027.31 1026.95 1026.64 1026.32 1025.95 1025.50 1024.97 1024.36 1023.72 1023.06 1022.42 1021.79 1021.18 1020.55 1019.90 1019.21 1018.49 1017.77 1017.08 1016.48 1016.00 1015.66 1015.49 1015.43 1015.47 1015.57 1015.69 1015.81 1015.94 1016.09 1016.27 1016.50
1033.03 1032.91 1032.73 1032.44 1031.99 1031.40 1030.69 1029.94 1029.20 1028.56 1028.03 1027.62 1027.30 1027.01 1026.70 1026.31 1025.82 1025.23 1024.57 1023.88 1023.19 1022.52 1021.89 1021.28 1020.65 1019.99 1019.28 1018.52 1017.73 1016.97 1016.29 1015.72 1015.29 1015.03 1014.91 1014.90 1014.95 1015.05 1015.18 1015.32 1015.49 1015.71 1015.98
1033.47 1033.37 1033.18 1032.84 1032.33 1031.68 1030.92 1030.14 1029.40 1028.77 1028.28 1027.90 1027.60 1027.31 1026.97 1026.55 1026.00 1025.36 1024.65 1023.92 1023.20 1022.54 1021.91 1021.31 1020.71 1020.05 1019.33 1018.54 1017.71 1016.90 1016.14 1015.48 1014.98 1014.63 1014.43 1014.35 1014.35 1014.41 1014.51 1014.64 1014.82 1015.05 1015.35
1033.83 1033.73 1033.52 1033.14 1032.58 1031.89 1031.11 1030.33 1029.60 1028.99 1028.52 1028.15 1027.84 1027.53 1027.15 1026.67 1026.06 1025.37 1024.62 1023.86 1023.15 1022.49 1021.89 1021.31 1020.72 1020.08 1019.35 1018.54 1017.68 1016.80 1015.98 1015.26 1014.67 1014.24 1013.96 1013.80 1013.74 1013.74 1013.80 1013.90 1014.06 1014.30 1014.61
1034.09 1033.98 1033.74 1033.33 1032.75 1032.05 1031.27 1030.51 1029.81 1029.22 1028.76 1028.38 1028.04 1027.68 1027.23 1026.68 1026.02 1025.28 1024.51 1023.75 1023.05 1022.42 1021.85 1021.29 1020.72 1020.07 1019.32 1018.48 1017.57 1016.65 1015.77 1014.98 1014.33 1013.83 1013.47 1013.24 1013.11 1013.04 1013.04 1013.10 1013.23 1013.45 1013.77
1034.22 1034.09 1033.83 1033.41 1032.83 1032.15 1031.41 1030.68 1030.02 1029.46 1028.99 1028.59 1028.20 1027.76 1027.24 1026.61 1025.90 1025.13 1024.35 1023.61 1022.94 1022.34 1021.79 1021.24 1020.66 1019.99 1019.20 1018.32 1017.36 1016.38 1015.45 1014.61 1013.91 1013.35 1012.94 1012.65 1012.45 1012.32 1012.25 1012.26 1012.35 1012.54 1012.85
1034.23 1034.08 1033.80 1033.37 1032.82 1032.18 1031.50 1030.83 1030.22 1029.69 1029.22 1028.77 1028.31 1027.79 1027.18 1026.49 1025.72 1024.93 1024.16 1023.44 1022.80 1022.23 1021.70 1021.15 1020.54 1019.82 1018.98 1018.03 1017.01 1015.99 1015.01 1014.14 1013.40 1012.82 1012.36 1012.03 1011.77 1011.59 1011.46 1011.41 1011.45 1011.61 1011.90
1034.12 1033.93 1033.64 1033.23 1032.72 1032.14 1031.54 1030.96 1030.41 1029.90 1029.42 1028.93 1028.39 1027.78 1027.09 1026.32 1025.51 1024.70 1023.94 1023.26 1022.65 1022.09 1021.56 1020.98 1020.32 1019.54 1018.63 1017.62 1016.55 1015.48 1014.48 1013.59 1012.84 1012.25 1011.78 1011.41 1011.12 1010.89 1010.71 1010.61 1010.60 1010.73 1010.99
1033.91 1033.70 1033.39 1033.00 1032.54 1032.05 1031.54 1031.04 1030.56 1030.09 1029.60 1029.06 1028.45 1027.75 1026.97 1026.13 1025.28 1024.46 1023.71 1023.04 1022.44 1021.90 1021.35 1020.74 1020.02 1019.17 1018.19 1017.12 1016.01 1014.92 1013.91 1013.03 1012.29 1011.70 1011.23 1010.85 1010.54 1010.27 1010.06 1009.91 1009.87 1009.96 1010.20
1033.65 1033.40 1033.09 1032.72 1032.32 1031.91 1031.50 1031.09 1030.68 1030.24 1029.75 1029.17 1028.49 1027.70 1026.84 1025.94 1025.05 1024.21 1023.45 1022.78 1022.19 1021.64 1021.06 1020.41 1019.64 1018.74 1017.71 1016.60 1015.47 1014.37 1013.38 1012.52 1011.81 1011.24 1010.78 1010.40 1010.07 1009.78 1009.53 1009.36 1009.29 1009.36 1009.59
1033.38 1033.10 1032.78 1032.44 1032.09 1031.75 1031.42 1031.10 1030.76 1030.36 1029.86 1029.25 1028.52 1027.66 1026.73 1025.77 1024.82 1023.95 1023.17 1022.50 1021.89 1021.32 1020.71 1020.02 1019.22 1018.28 1017.23 1016.12 1014.99 1013.93 1012.96 1012.14 1011.46 1010.90 1010.45 1010.07 1009.72 1009.41 1009.15 1008.96 1008.89 1008.95 1009.18
1033.12 1032.83 1032.51 1032.18 1031.87 1031.59 1031.34 1031.09 1030.81 1030.44 1029.96 1029.32 1028.54 1027.63 1026.64 1025.62 1024.62 1023.71 1022.89 1022.19 1021.56 1020.95 1020.32 1019.61 1018.79 1017.86 1016.82 1015.74 1014.66 1013.63 1012.71 1011.92 1011.25 1010.71 1010.24 1009.84 1009.47 1009.15 1008.88 1008.70 1008.63 1008.72 1008.96
1032.92 1032.62 1032.29 1031.96 1031.68 1031.45 1031.25 1031.06 1030.82 1030.49 1030.02 1029.38 1028.57 1027.62 1026.57 1025.50 1024.45 1023.48 1022.62 1021.87 1021.20 1020.57 1019.92 1019.20 1018.40 1017.50 1016.51 1015.49 1014.47 1013.51 1012.63 1011.86 1011.19 1010.62 1010.12 1009.67 1009.27 1008.93 1008.66 1008.50 1008.47 1008.60 1008.89
Thickness
5701 5704 5706 5707 5708 5708 5709 5710 5711 5712 5712 5714 5714 5715 5717 5718 5719 5719 5720 5720 5721 5721 5721 5721 5722 5722 5722 5722 5722 5721 5721 5721 5721 5721 5721 5720 5720 5720 5719 5718 5718 5717 5717
5700 5701 5702 5704 5704 5705 5705 5706 5707 5708 5709 5710 5711 5712 5713 5714 5715 5716 5716 5716 5717 5717 5717 5718 5718 5718 5718 5718 5718 5718 5718 5718 5717 5717 5717 5717 5716 5716 5715 5715 5714 5714 5714
5696 5697 5698 5699 5700 5701 5701 5702 5703 5703 5704 5705 5706 5707 5708 5710 5711 5712 5712 5713 5713 5713 5714 5714 5714 5714 5714 5714 5714 5714 5714 5714 5713 5713 5712 5712 5712 5712 5712 5711 5711 5711 5710
5692 5692 5693 5694 5696 5696 5697 5697 5698 5698 5699 5700 5701 5702 5703 5705 5706 5707 5708 5708 5709 5709 5710 5710 5710 5710 5710 5710 5710 5710 5710 5710 5709 5708 5708 5708 5708 5709 5708 5708 5708 5707 5706
5686 5687 5688 5689 5690 5691 5691 5692 5692 5693 5694 5695 5696 5697 5698 5699 5700 5701 5702 5703 5704 5705 5705 5706 5706 5706 5706 5706 5706 5706 5705 5705 5705 5704 5704 5704 5704 5705 5705 5704 5703 5703 5702
5680 5681 5682 5683 5684 5685 5685 5686 5686 5687 5688 5689 5690 5691 5692 5694 5695 5695 5696 5697 5699 5700 5700 5701 5701 5702 5702 5702 5702 5701 5701 5701 5700 5700 5700 5700 5700 5701 5700 5700 5699 5699 5698
5673 5673 5674 5676 5677 5677 5678 5679 5680 5681 5682 5683 5684 5685 5686 5687 5689 5690 5691 5691 5692 5694 5694 5695 5696 5696 5697 5697 5697 5697 5696 5696 5696 5695 5695 5695 5695 5696 5696 5695 5695 5694 5693
5667 5666 5667 5668 5669 5670 5671 5672 5673 5674 5675 5676 5677 5678 5680 5681 5682 5683 5684 5685 5686 5687 5688 5689 5690 5691 5691 5692 5692 5692 5691 5691 5690 5690 5690 5690 5690 5690 5691 5690 5690 5689 5689
5659 5659 5659 5660 5661 5662 5663 5664 5665 5666 5667 5668 5669 5670 5672 5673 5675 5676 5677 5679 5680 5681 5682 5683 5684 5685 5685 5685 5686 5686 5685 5685 5685 5685 5685 5685 5685 5686 5685 5685 5685 5685 5684
5650 5650 5651 5651 5652 5653 5654 5655 5657 5657 5658 5659 5661 5662 5664 5665 5667 5668 5670 5671 5672 5674 5675 5676 5677 5678 5679 5679 5679 5680 5679 5679 5679 5679 5680 5680 5681 5681 5680 5680 5680 5679 5679
5639 5640 5641 5642 5643 5644 5646 5646 5647 5648 5649 5650 5652 5653 5655 5657 5658 5660 5661 5663 5664 5666 5667 5668 5670 5671 5672 5672 5673 5673 5673 5673 5673 5673 5674 5674 5675 5675 5675 5675 5674 5674 5673
5628 5629 5631 5632 5634 5635 5637 5637 5638 5639 5640 5641 5642 5644 5645 5647 5649 5651 5653 5654 5656 5657 5658 5660 5661 5663 5664 5665 5665 5666 5666 5666 5667 5667 5667 5668 5669 5669 5669 5669 5668 5668 5667
5618 5619 5621 5622 5624 5626 5627 5628 5629 5629 5630 5631 5632 5634 5635 5637 5639 5641 5643 5644 5646 5648 5649 5651 5652 5654 5655 5656 5657 5658 5659 5659 5660 5660 5661 5662 5663 5663 5663 5662 5662 5662 5661
5608 5609 5610 5612 5614 5615 5616 5618 5619 5619 5620 5621 5622 5623 5625 5626 5628 5630 5632 5634 5636 5637 5639 5641 5643 5645 5646 5647 5649 5650 5651 5652 5652 5653 5654 5655 5656 5656 5656 5656 5656 5656 5655
5598 5598 5600 5602 5603 5604 5605 5606 5607 5608 5609 5610 5611 5613 5614 5615 5617 5619 5620 5623 5625 5627 5629 5631 5634 5635 5636 5637 5639 5640 5642 5643 5644 5645 5646 5647 5647 5648 5649 5649 5649 5649 5649
5587 5587 5589 5590 5591 5593 5594 5595 5596 5596 5597 5599 5600 5601 5603 5605 5606 5608 5609 5612 5614 5617 5619 5621 5623 5624 5626 5627 5629 5630 5632 5634 5636 5636 5637 5638 5638 5639 5641 5641 5641 5642 5641
5576 5577 5578 5579 5580 5581 5582 5583 5584 5584 5586 5587 5588 5590 5592 5594 5596 5597 5598 5601 5603 5606 5608 5610 5612 5613 5615 5616 5618 5620 5621 5624 5626 5627 5628 5629 5630 5630 5631 5632 5632 5633 5634
5564 5565 5566 5568 5568 5569 5570 5571 5572 5572 5574 5575 5576 5578 5580 5582 5584 5586 5587 5589 5592 5594 5597 5598 5600 5600 5602 5604 5606 5608 5611 5613 5615 5617 5618 5619 5619 5620 5621 5621 5623 5623 5624
5553 5553 5554 5556 5556 5557 5558 5559 5560 5561 5562 5562 5564 5566 5568 5570 5572 5574 5576 5577 5579 5582 5584 5585 5586 5588 5589 5591 5594 5596 5599 5602 5604 5606 5607 5609 5609 5610 5611 5612 5613 5613 5615
5542 5542 5543 5544 5545 5546 5547 5547 5547 5549 5550 5551 5552 5554 5555 5557 5560 5562 5564 5565 5567 5569 5570 5572 5573 5575 5576 5578 5581 5584 5586 5589 5592 5594 5596 5597 5599 5600 5601 5602 5603 5604 5605
5531 5531 5532 5533 5534 5534 5535 5535 5536 5536 5538 5539 5540 5542 5543 5545 5547 5549 5550 5552 5554 5555 5557 5558 5560 5561 5563 5565 5568 5570 5573 5577 5580 5582 5584 5586 5587 5589 5590 5592 5593 5593 5595
5520 5521 5522 5522 5523 5524 5524 5524 5525 5525 5525 5527 5528 5530 5531 5533 5534 5536 5537 5539 5541 5543 5545 5546 5547 5548 5549 5552 5553 5556 5559 5562 5566 5569 5571 5574 5575 5578 5579 5581 5582 5583 5584
5510 5510 5512 5512 5513 5513 5513 5513 5514 5514 5514 5515 5516 5517 5518 5520 5521 5522 5523 5526 5529 5531 5533 5534 5535 5537 5537 5539 5541 5543 5547 5550 5550 5555 5558 5560 5563 5565 5567 5570 5572 5573 5574
5500 5501 5501 5502 5502 5502 5502 5502 5502 5502 5501 5502 5503 5504 5505 5507 5508 5509 5511 5513 5516 5519 5521 5523 5524 5526 5527 5527 5529 5531 5533 5536 5538 5541 5544 5547 5550 5552 5554 5557 5559 5561 5563
5490 5490 5490 5490 5491 5491 5491 5491 5490 5489 5489 5490 5491 5492 5493 5495 5496 5498 5499 5501 5504 5507 5510 5511 5513 5514 5516 5517 5518 5520 5522 5524 5527 5528 5530 5533 5535 5538 5541 5544 5547 5548 5550
5479 5479 5479 5479 5479 5480 5480 5480 5479 5478 5478 5478 5479 5480 5481 5483 5485 5487 5488 5490 5493 5496 5498 5500 5502 5503 5504 5506 5508 5510 5512 5514 5515 5516 5517 5519 5521 5525 5528 5531 5534 5536 5538